Showing default

ABS 6 (LMI 1), 25924

Orbit data source: Space-Track

ABS 6 (LMI 1), 25924 is an Emirian payload satellite in GEO that was launched on Sun, 26 Sep 1999 UTC via a PROTON-K/DM-2M launch vehicle from the Tyuratam Missile And Space Complex (TTMTR). Payload-class satellites include a variety of spacecraft equipped with specific instruments for various scientific and technological missions. These include communications satellites like Starlink; space stations such as the ISS; scientific satellites like the Hubble; Earth observation satellites from companies like Planet Labs, Umbra, and HawkEye 360; GPS; miniature CubeSats for education and research; and military/defense satellites.

Not visible in the next 10 days
Identifier
25924, 1999-053A
Orbit
GEO
Last TLE update
12 hours ago
Origin
Manufacturer
LMCSS
Mission
Operational Commercial Communications
Bus & Motor
A2100, LEROS 1C
Mass
3,740 kg wet, 1,730 kg dry
Launch date (UTC)
1999-09-26 (26 years ago)
Launch vehicle
PROTON-K/DM-2M
Launch site
Tyuratam Missile And Space Complex (TTMTR)
Object type
Payload
Rocket body
Debris
Shape & HBR
Box + 2 Pan, 21 m
Radar Cross Section
18.290 m², Large (>1 m²)

Expand to show TLE details & history

TLE from 12 hours ago
0 ABS 6 (LMI 1)
1 25924U 99053A   25186.52155927 -.00000102  00000-0  00000-0 0  9990
2 25924   0.0498 275.6082 0003803 195.1630 159.7935  1.00278590 94367
Epoch: 2025-07-05T12:31Z
TLE epoch observation values (Epoch: 2025-07-05T12:31:02.72Z)
Latitude
-0.02417°
Longitude
159.0626°
Altitude
35,799.3 km
Speed
3.074 km/s
True Right ascension
18h 02m 19s
True Declination
0° 01' 27"
Sunlit
Object was in daylight at epoch
Visualization orbit readout
Latitude
0.02172°
Longitude
-16.7796°
Altitude
35,768.701 km
Speed
3.076 km/s
Apparent Right ascension
05h 52m 52s
Apparent Declination
-5° 23' 48"
Sunlit
Object is in daylight
Visualization observer readout
Local Sidereal Time
12:42:17
Azimuth
273.797° WNW
Elevation
-12.927°
Doppler factor
1
Orbital elements
Apogee altitude
35,801.793 km
Perigee altitude
35,769.723 km
Semi-major axis
42,163.895 km
Eccentricity
0.00038
Inclination
0.0498°
RAAN
275.6082°
Arg. of periapsis
195.163°
True anomaly
Unknown
Mean anomaly
159.7935°
Eccentric anomaly
Unknown
Mean motion
0.25069 °/min
Orbital period
1,436.05 mins
BSTAR
0
Loading historical data...
25924 neighbors
Loading maneuver chart data...
Loading SW <> Apogee altitude chart data...
Loading historical data...
Loading historical data...
Loading historical data...
Loading historical data...
Loading historical data...
Loading historical data...
Loading historical data...
Other satellites on launch #53 in the year 1999 (1999-09-26 UTC)

ABS 6 (LMI 1) Visibility

Observer location: undefined°, undefined°

ABS 6 (LMI 1) is likely not visible in the next few days
Span
Click to sort rows by Start time (UTC) header in descending order
Start Az.
Max El. time (UTC)
Max El. Az.
Max El.
End time (UTC)
End Az.
|